Location: Emblem
(62.4273°N, 6.4710°E)
Time: 07:03:25
(UTC+02:00)

Transit 2A - Pass Details

Date: 10 March 2024
Orbit: 596 x 956 km, 66.7° (Epoch: 24 April)

Event Time Altitude Azimuth Distance (km) Brightness Sun altitude
Rises 01:15:52 0° 306° (NW) 2,981 9.4 -31.3°
Reaches altitude 10° 01:18:12 10° 298° (WNW) 2,112 8.4 -31.2°
Enters shadow 01:18:18 11° 297° (WNW) 2,077 8.4 -31.2°
